Time,TemperatureF,DewpointF,PressureIn,WindDirection,WindDirectionDegrees,WindSpeedMPH,WindSpeedGustMPH,Humidity,HourlyPrecipIn,Conditions,Clouds,dailyrainin,SoftwareType,DateUTC
2013-03-08 00:00:00,35.8,27.7,30.09,NW,309,1.0,1.0,72,0.00,,,0.00,Wunderground v.1.15,2013-03-08 05:00:00,
2013-03-08 00:05:00,35.6,27.5,30.09,NW,304,1.0,5.0,72,0.00,,,0.00,Wunderground v.1.15,2013-03-08 05:05:00,
2013-03-08 00:10:00,35.3,27.5,30.09,NW,304,1.0,1.0,73,0.00,,,0.00,Wunderground v.1.15,2013-03-08 05:10:00,
2013-03-08 00:15:00,35.1,27.3,30.09,NW,306,1.0,5.0,73,0.00,,,0.00,Wunderground v.1.15,2013-03-08 05:15:00,
2013-03-08 00:20:00,35.0,26.9,30.09,NW,311,1.0,1.0,72,0.00,,,0.00,Wunderground v.1.15,2013-03-08 05:20:00,
2013-03-08 00:25:00,35.0,27.2,30.09,NW,306,1.0,3.0,73,0.00,,,0.00,Wunderground v.1.15,2013-03-08 05:25:00,
2013-03-08 00:30:00,35.1,27.0,30.09,WNW,299,2.0,2.0,72,0.00,,,0.00,Wunderground v.1.15,2013-03-08 05:30:00,
2013-03-08 00:40:00,35.1,27.0,30.09,NW,308,2.0,2.0,72,0.00,,,0.00,Wunderground v.1.15,2013-03-08 05:40:00,
2013-03-08 00:45:00,35.1,27.0,30.09,NW,309,2.0,2.0,72,0.00,,,0.00,Wunderground v.1.15,2013-03-08 05:45:00,
2013-03-08 00:50:00,35.2,26.7,30.09,NW,313,2.0,2.0,71,0.00,,,0.00,Wunderground v.1.15,2013-03-08 05:50:00,
2013-03-08 00:55:00,35.3,26.8,30.09,NNW,327,2.0,2.0,71,0.00,,,0.00,Wunderground v.1.15,2013-03-08 05:55:00,
2013-03-08 01:00:00,35.3,26.8,30.09,NW,325,2.0,2.0,71,0.00,,,0.00,Wunderground v.1.15,2013-03-08 06:00:00,
2013-03-08 01:05:00,35.3,26.5,30.09,NW,324,2.0,2.0,70,0.00,,,0.00,Wunderground v.1.15,2013-03-08 06:05:00,
2013-03-08 01:15:00,35.3,26.5,30.09,WNW,298,2.0,2.0,70,0.00,,,0.00,Wunderground v.1.15,2013-03-08 06:15:00,
2013-03-08 01:20:00,35.3,26.5,30.09,NW,304,2.0,2.0,70,0.00,,,0.00,Wunderground v.1.15,2013-03-08 06:20:00,
2013-03-08 01:30:00,35.1,26.3,30.09,WNW,302,1.0,1.0,70,0.00,,,0.00,Wunderground v.1.15,2013-03-08 06:30:00,
2013-03-08 01:35:00,34.9,26.4,30.09,WNW,299,1.0,1.0,71,0.00,,,0.00,Wunderground v.1.15,2013-03-08 06:35:00,
2013-03-08 01:40:00,34.8,26.4,30.09,NW,311,1.0,2.0,71,0.00,,,0.00,Wunderground v.1.15,2013-03-08 06:40:00,
2013-03-08 01:50:00,34.6,26.5,30.09,WNW,296,2.0,3.0,72,0.00,,,0.00,Wunderground v.1.15,2013-03-08 06:50:00,
2013-03-08 01:55:00,34.6,26.5,30.09,WNW,298,2.0,3.0,72,0.00,,,0.00,Wunderground v.1.15,2013-03-08 06:55:00,
2013-03-08 02:00:00,34.4,26.3,30.08,NNW,327,1.0,2.0,72,0.00,,,0.00,Wunderground v.1.15,2013-03-08 07:00:00,
2013-03-08 02:05:00,34.3,26.5,30.08,NNW,327,1.0,2.0,73,0.00,,,0.00,Wunderground v.1.15,2013-03-08 07:05:00,
2013-03-08 02:10:00,34.2,26.1,30.08,WNW,292,1.0,1.0,72,0.00,,,0.00,Wunderground v.1.15,2013-03-08 07:10:00,
2013-03-08 02:20:00,33.9,26.2,30.08,WNW,303,1.0,1.0,73,0.00,,,0.00,Wunderground v.1.15,2013-03-08 07:20:00,
2013-03-08 02:25:00,33.7,26.3,30.08,WNW,303,1.0,2.0,74,0.00,,,0.00,Wunderground v.1.15,2013-03-08 07:25:00,
2013-03-08 02:30:00,33.6,26.2,30.08,WNW,303,2.0,2.0,74,0.00,,,0.00,Wunderground v.1.15,2013-03-08 07:30:00,
2013-03-08 02:35:00,33.4,26.0,30.07,WNW,303,1.0,3.0,74,0.00,,,0.00,Wunderground v.1.15,2013-03-08 07:35:00,
2013-03-08 02:40:00,33.3,25.9,30.07,WNW,284,2.0,2.0,74,0.00,,,0.00,Wunderground v.1.15,2013-03-08 07:40:00,
2013-03-08 02:45:00,33.3,25.9,30.07,NNW,346,2.0,2.0,74,0.00,,,0.00,Wunderground v.1.15,2013-03-08 07:45:00,
2013-03-08 02:50:00,33.3,25.9,30.07,NNW,330,1.0,2.0,74,0.00,,,0.00,Wunderground v.1.15,2013-03-08 07:50:00,
2013-03-08 02:55:00,33.3,25.9,30.07,NW,326,1.0,2.0,74,0.00,,,0.00,Wunderground v.1.15,2013-03-08 07:55:00,
2013-03-08 03:00:00,33.2,26.1,30.07,NW,312,1.0,2.0,75,0.00,,,0.00,Wunderground v.1.15,2013-03-08 08:00:00,
2013-03-08 03:05:00,33.2,26.1,30.07,NW,313,1.0,6.0,75,0.00,,,0.00,Wunderground v.1.15,2013-03-08 08:05:00,
2013-03-08 03:10:00,33.1,26.0,30.07,NW,307,1.0,6.0,75,0.00,,,0.00,Wunderground v.1.15,2013-03-08 08:10:00,
2013-03-08 03:15:00,33.1,26.0,30.06,NNW,327,1.0,6.0,75,0.00,,,0.00,Wunderground v.1.15,2013-03-08 08:15:00,
2013-03-08 03:25:00,33.0,25.9,30.07,NNW,339,1.0,6.0,75,0.00,,,0.00,Wunderground v.1.15,2013-03-08 08:25:00,
2013-03-08 03:30:00,33.0,26.3,30.07,NNW,340,1.0,1.0,76,0.00,,,0.00,Wunderground v.1.15,2013-03-08 08:30:00,
2013-03-08 03:40:00,32.9,26.2,30.06,NNW,346,1.0,6.0,76,0.00,,,0.00,Wunderground v.1.15,2013-03-08 08:40:00,
2013-03-08 03:45:00,32.9,26.2,30.06,NW,313,1.0,6.0,76,0.00,,,0.00,Wunderground v.1.15,2013-03-08 08:45:00,
2013-03-08 03:55:00,33.2,26.1,30.07,NNW,329,2.0,6.0,75,0.00,,,0.00,Wunderground v.1.15,2013-03-08 08:55:00,
2013-03-08 04:00:00,33.4,26.3,30.07,NW,323,2.0,6.0,75,0.00,,,0.00,Wunderground v.1.15,2013-03-08 09:00:00,
2013-03-08 04:10:00,33.4,26.3,30.07,NNW,329,1.0,1.0,75,0.00,,,0.00,Wunderground v.1.15,2013-03-08 09:10:00,
2013-03-08 04:15:00,33.3,26.2,30.07,NNW,327,1.0,6.0,75,0.00,,,0.00,Wunderground v.1.15,2013-03-08 09:15:00,
2013-03-08 04:20:00,33.2,26.1,30.07,NW,313,1.0,6.0,75,0.00,,,0.00,Wunderground v.1.15,2013-03-08 09:20:00,
2013-03-08 04:30:00,33.7,26.3,30.07,West,269,3.0,6.0,74,0.00,,,0.00,Wunderground v.1.15,2013-03-08 09:30:00,
2013-03-08 04:40:00,34.1,26.3,30.07,NW,325,3.0,3.0,73,0.00,,,0.00,Wunderground v.1.15,2013-03-08 09:40:00,
2013-03-08 04:45:00,34.1,26.3,30.07,NNW,331,2.0,6.0,73,0.00,,,0.00,Wunderground v.1.15,2013-03-08 09:45:00,
2013-03-08 04:50:00,34.1,26.3,30.07,NW,319,2.0,2.0,73,0.00,,,0.00,Wunderground v.1.15,2013-03-08 09:50:00,
2013-03-08 05:00:00,33.9,26.2,30.07,NNW,332,2.0,6.0,73,0.00,,,0.00,Wunderground v.1.15,2013-03-08 10:00:00,
2013-03-08 05:05:00,33.8,26.4,30.07,NW,311,1.0,6.0,74,0.00,,,0.00,Wunderground v.1.15,2013-03-08 10:05:00,
2013-03-08 05:10:00,33.6,26.2,30.07,North,355,1.0,6.0,74,0.00,,,0.00,Wunderground v.1.15,2013-03-08 10:10:00,
2013-03-08 05:15:00,33.4,26.3,30.07,NW,309,1.0,6.0,75,0.00,,,0.00,Wunderground v.1.15,2013-03-08 10:15:00,
2013-03-08 05:20:00,33.2,26.1,30.07,WNW,298,2.0,6.0,75,0.00,,,0.00,Wunderground v.1.15,2013-03-08 10:20:00,
2013-03-08 05:25:00,33.0,25.9,30.07,NW,310,2.0,6.0,75,0.00,,,0.00,Wunderground v.1.15,2013-03-08 10:25:00,
2013-03-08 05:35:00,32.9,25.8,30.08,NW,322,2.0,2.0,75,0.00,,,0.00,Wunderground v.1.15,2013-03-08 10:35:00,
2013-03-08 05:40:00,32.8,25.7,30.08,NW,322,1.0,1.0,75,0.00,,,0.00,Wunderground v.1.15,2013-03-08 10:40:00,
2013-03-08 05:45:00,32.7,25.6,30.08,NW,322,0.0,1.0,75,0.00,,,0.00,Wunderground v.1.15,2013-03-08 10:45:00,
2013-03-08 05:50:00,32.5,25.8,30.08,NW,322,0.0,0.0,76,0.00,,,0.00,Wunderground v.1.15,2013-03-08 10:50:00,
2013-03-08 05:55:00,32.3,25.6,30.08,NW,319,1.0,1.0,76,0.00,,,0.00,Wunderground v.1.15,2013-03-08 10:55:00,
2013-03-08 06:00:00,32.1,25.7,30.08,NW,315,1.0,1.0,77,0.00,,,0.00,Wunderground v.1.15,2013-03-08 11:00:00,
2013-03-08 06:10:00,31.9,25.5,30.09,NW,311,1.0,1.0,77,0.00,,,0.00,Wunderground v.1.15,2013-03-08 11:10:00,
2013-03-08 06:20:00,31.9,25.5,30.09,NW,324,1.0,1.0,77,0.00,,,0.00,Wunderground v.1.15,2013-03-08 11:20:00,
2013-03-08 06:25:00,31.8,25.4,30.09,NW,324,1.0,2.0,77,0.00,,,0.00,Wunderground v.1.15,2013-03-08 11:25:00,
2013-03-08 06:30:00,31.6,25.5,30.10,NW,315,1.0,2.0,78,0.00,,,0.00,Wunderground v.1.15,2013-03-08 11:30:00,
2013-03-08 06:35:00,31.5,25.4,30.10,NW,315,1.0,2.0,78,0.00,,,0.00,Wunderground v.1.15,2013-03-08 11:35:00,
2013-03-08 06:40:00,31.5,25.4,30.10,NNW,336,1.0,1.0,78,0.00,,,0.00,Wunderground v.1.15,2013-03-08 11:40:00,
2013-03-08 06:45:00,31.5,25.4,30.10,NNW,338,1.0,2.0,78,0.00,,,0.00,Wunderground v.1.15,2013-03-08 11:45:00,
2013-03-08 06:50:00,31.5,25.4,30.10,NNW,333,1.0,1.0,78,0.00,,,0.00,Wunderground v.1.15,2013-03-08 11:50:00,
2013-03-08 07:00:00,31.6,25.5,30.10,NNW,329,1.0,2.0,78,0.00,,,0.00,Wunderground v.1.15,2013-03-08 12:00:00,
2013-03-08 07:05:00,31.7,25.6,30.10,NNW,335,1.0,8.0,78,0.00,,,0.00,Wunderground v.1.15,2013-03-08 12:05:00,
2013-03-08 07:10:00,32.0,26.2,30.11,NNW,332,1.0,1.0,79,0.00,,,0.00,Wunderground v.1.15,2013-03-08 12:10:00,
2013-03-08 07:20:00,32.4,26.3,30.11,WNW,297,1.0,1.0,78,0.00,,,0.00,Wunderground v.1.15,2013-03-08 12:20:00,
2013-03-08 07:25:00,32.6,26.5,30.11,NNW,327,1.0,3.0,78,0.00,,,0.00,Wunderground v.1.15,2013-03-08 12:25:00,
2013-03-08 07:30:00,33.1,27.0,30.10,North,5,1.0,1.0,78,0.00,,,0.00,Wunderground v.1.15,2013-03-08 12:30:00,
2013-03-08 07:35:00,33.5,27.1,30.11,NNE,13,2.0,3.0,77,0.00,,,0.00,Wunderground v.1.15,2013-03-08 12:35:00,
2013-03-08 07:45:00,34.2,27.4,30.11,NNW,344,2.0,3.0,76,0.00,,,0.00,Wunderground v.1.15,2013-03-08 12:45:00,
2013-03-08 07:50:00,34.6,27.5,30.11,NNW,343,3.0,8.0,75,0.00,,,0.00,Wunderground v.1.15,2013-03-08 12:50:00,
2013-03-08 07:55:00,35.0,27.9,30.11,NW,312,2.0,8.0,75,0.00,,,0.00,Wunderground v.1.15,2013-03-08 12:55:00,
2013-03-08 08:00:00,35.5,28.0,30.11,NNW,343,2.0,2.0,74,0.00,,,0.00,Wunderground v.1.15,2013-03-08 13:00:00,
2013-03-08 08:05:00,35.9,28.1,30.11,NW,307,2.0,3.0,73,0.00,,,0.00,Wunderground v.1.15,2013-03-08 13:05:00,
2013-03-08 08:10:00,36.3,28.1,30.11,North,11,2.0,8.0,72,0.00,,,0.00,Wunderground v.1.15,2013-03-08 13:10:00,
2013-03-08 08:20:00,37.2,28.3,30.11,North,360,4.0,4.0,70,0.00,,,0.00,Wunderground v.1.15,2013-03-08 13:20:00,
2013-03-08 08:30:00,38.0,29.1,30.12,NW,317,4.0,4.0,70,0.00,,,0.00,Wunderground v.1.15,2013-03-08 13:30:00,
2013-03-08 08:35:00,38.5,29.2,30.11,NW,310,3.0,5.0,69,0.00,,,0.00,Wunderground v.1.15,2013-03-08 13:35:00,
2013-03-08 08:40:00,39.0,29.7,30.11,NNE,17,4.0,4.0,69,0.00,,,0.00,Wunderground v.1.15,2013-03-08 13:40:00,
2013-03-08 08:45:00,39.5,29.4,30.12,NNE,19,5.0,5.0,67,0.00,,,0.00,Wunderground v.1.15,2013-03-08 13:45:00,
2013-03-08 08:55:00,40.6,30.5,30.12,North,10,4.0,7.0,67,0.00,,,0.00,Wunderground v.1.15,2013-03-08 13:55:00,
2013-03-08 09:00:00,40.7,30.2,30.12,North,5,4.0,4.0,66,0.00,,,0.00,Wunderground v.1.15,2013-03-08 14:00:00,
2013-03-08 09:05:00,41.0,30.5,30.12,NNE,32,4.0,5.0,66,0.00,,,0.00,Wunderground v.1.15,2013-03-08 14:05:00,
2013-03-08 09:15:00,41.4,30.5,30.12,North,355,4.0,8.0,65,0.00,,,0.00,Wunderground v.1.15,2013-03-08 14:15:00,
2013-03-08 09:20:00,41.9,31.0,30.12,North,5,5.0,5.0,65,0.00,,,0.00,Wunderground v.1.15,2013-03-08 14:20:00,
2013-03-08 09:25:00,42.5,30.8,30.11,North,349,5.0,7.0,63,0.00,,,0.00,Wunderground v.1.15,2013-03-08 14:25:00,
2013-03-08 09:30:00,42.9,30.8,30.11,North,11,6.0,6.0,62,0.00,,,0.00,Wunderground v.1.15,2013-03-08 14:30:00,
2013-03-08 09:40:00,43.6,31.0,30.11,NW,326,6.0,6.0,61,0.00,,,0.00,Wunderground v.1.15,2013-03-08 14:40:00,
2013-03-08 09:50:00,44.4,30.5,30.11,North,355,5.0,5.0,58,0.00,,,0.00,Wunderground v.1.15,2013-03-08 14:50:00,
2013-03-08 09:55:00,44.9,31.0,30.11,NNE,28,6.0,6.0,58,0.00,,,0.00,Wunderground v.1.15,2013-03-08 14:55:00,
2013-03-08 10:00:00,45.4,30.6,30.11,NNE,14,6.0,7.0,56,0.00,,,0.00,Wunderground v.1.15,2013-03-08 15:00:00,
2013-03-08 10:05:00,46.0,29.8,30.11,NW,326,7.0,9.0,53,0.00,,,0.00,Wunderground v.1.15,2013-03-08 15:05:00,
2013-03-08 10:15:00,46.1,29.4,30.10,NNW,343,9.0,11.0,52,0.00,,,0.00,Wunderground v.1.15,2013-03-08 15:15:00,
2013-03-08 10:20:00,46.6,28.9,30.10,NNW,334,7.0,7.0,50,0.00,,,0.00,Wunderground v.1.15,2013-03-08 15:20:00,
2013-03-08 10:30:00,46.9,28.7,30.10,North,5,9.0,9.0,49,0.00,,,0.00,Wunderground v.1.15,2013-03-08 15:30:00,
2013-03-08 10:40:00,47.4,29.2,30.10,West,279,7.0,8.0,49,0.00,,,0.00,Wunderground v.1.15,2013-03-08 15:40:00,
2013-03-08 10:45:00,47.4,28.7,30.09,North,349,9.0,13.0,48,0.00,,,0.00,Wunderground v.1.15,2013-03-08 15:45:00,
2013-03-08 10:50:00,47.3,28.1,30.10,NNW,348,10.0,10.0,47,0.00,,,0.00,Wunderground v.1.15,2013-03-08 15:50:00,
2013-03-08 10:55:00,47.5,27.7,30.09,NNW,342,8.0,10.0,46,0.00,,,0.00,Wunderground v.1.15,2013-03-08 15:55:00,
2013-03-08 11:00:00,47.8,28.0,30.09,North,360,8.0,8.0,46,0.00,,,0.00,Wunderground v.1.15,2013-03-08 16:00:00,
2013-03-08 11:05:00,48.1,27.2,30.09,NNW,340,8.0,8.0,44,0.00,,,0.00,Wunderground v.1.15,2013-03-08 16:05:00,
2013-03-08 11:10:00,48.3,27.4,30.09,North,351,8.0,8.0,44,0.00,,,0.00,Wunderground v.1.15,2013-03-08 16:10:00,
2013-03-08 11:15:00,48.5,27.0,30.09,North,360,8.0,14.0,43,0.00,,,0.00,Wunderground v.1.15,2013-03-08 16:15:00,
2013-03-08 11:20:00,48.6,27.6,30.08,NNE,14,8.0,8.0,44,0.00,,,0.00,Wunderground v.1.15,2013-03-08 16:20:00,
2013-03-08 11:25:00,48.9,27.9,30.09,North,360,7.0,8.0,44,0.00,,,0.00,Wunderground v.1.15,2013-03-08 16:25:00,
2013-03-08 11:35:00,49.2,27.6,30.08,ENE,57,7.0,7.0,43,0.00,,,0.00,Wunderground v.1.15,2013-03-08 16:35:00,
2013-03-08 11:40:00,49.5,27.9,30.08,North,360,8.0,8.0,43,0.00,,,0.00,Wunderground v.1.15,2013-03-08 16:40:00,
2013-03-08 11:45:00,49.5,27.3,30.08,NNE,21,9.0,9.0,42,0.00,,,0.00,Wunderground v.1.15,2013-03-08 16:45:00,
2013-03-08 11:50:00,49.6,26.8,30.08,NNW,344,9.0,12.0,41,0.00,,,0.00,Wunderground v.1.15,2013-03-08 16:50:00,
2013-03-08 11:55:00,49.9,27.1,30.07,NW,313,9.0,12.0,41,0.00,,,0.00,Wunderground v.1.15,2013-03-08 16:55:00,
2013-03-08 12:00:00,50.3,26.9,30.07,NNW,327,8.0,12.0,40,0.00,,,0.00,Wunderground v.1.15,2013-03-08 17:00:00,
2013-03-08 12:10:00,50.5,27.7,30.06,WNW,303,8.0,9.0,41,0.00,,,0.00,Wunderground v.1.15,2013-03-08 17:10:00,
2013-03-08 12:15:00,50.6,28.3,30.06,NW,311,8.0,9.0,42,0.00,,,0.00,Wunderground v.1.15,2013-03-08 17:15:00,
2013-03-08 12:20:00,50.8,27.3,30.06,NNW,337,8.0,11.0,40,0.00,,,0.00,Wunderground v.1.15,2013-03-08 17:20:00,
2013-03-08 12:25:00,50.8,27.9,30.05,North,351,8.0,14.0,41,0.00,,,0.00,Wunderground v.1.15,2013-03-08 17:25:00,
2013-03-08 12:30:00,51.1,27.0,30.05,NNW,348,9.0,11.0,39,0.00,,,0.00,Wunderground v.1.15,2013-03-08 17:30:00,
2013-03-08 12:40:00,51.0,26.9,30.05,WNW,296,10.0,17.0,39,0.00,,,0.00,Wunderground v.1.15,2013-03-08 17:40:00,
2013-03-08 12:45:00,51.3,27.8,30.04,NNW,340,9.0,17.0,40,0.00,,,0.00,Wunderground v.1.15,2013-03-08 17:45:00,
2013-03-08 12:50:00,51.9,27.7,30.04,NNE,19,7.0,7.0,39,0.00,,,0.00,Wunderground v.1.15,2013-03-08 17:50:00,
2013-03-08 12:55:00,52.2,26.7,30.04,NNW,344,8.0,8.0,37,0.00,,,0.00,Wunderground v.1.15,2013-03-08 17:55:00,
2013-03-08 13:00:00,52.2,28.0,30.03,NNW,347,9.0,9.0,39,0.00,,,0.00,Wunderground v.1.15,2013-03-08 18:00:00,
2013-03-08 13:05:00,52.7,27.8,30.03,North,360,7.0,10.0,38,0.00,,,0.00,Wunderground v.1.15,2013-03-08 18:05:00,
2013-03-08 13:15:00,52.2,27.3,30.03,WNW,300,9.0,21.0,38,0.00,,,0.00,Wunderground v.1.15,2013-03-08 18:15:00,
2013-03-08 13:20:00,52.3,28.7,30.03,NW,304,8.0,21.0,40,0.00,,,0.00,Wunderground v.1.15,2013-03-08 18:20:00,
2013-03-08 13:25:00,52.6,27.0,30.02,NNE,14,7.0,21.0,37,0.00,,,0.00,Wunderground v.1.15,2013-03-08 18:25:00,
2013-03-08 13:30:00,52.7,28.4,30.02,NNW,345,8.0,8.0,39,0.00,,,0.00,Wunderground v.1.15,2013-03-08 18:30:00,
2013-03-08 13:35:00,53.2,29.5,30.02,NNW,344,7.0,21.0,40,0.00,,,0.00,Wunderground v.1.15,2013-03-08 18:35:00,
2013-03-08 13:45:00,53.4,27.8,30.02,NNW,338,8.0,21.0,37,0.00,,,0.00,Wunderground v.1.15,2013-03-08 18:45:00,
2013-03-08 13:50:00,53.2,27.6,30.01,NW,305,8.0,21.0,37,0.00,,,0.00,Wunderground v.1.15,2013-03-08 18:50:00,
2013-03-08 14:00:00,53.5,27.2,30.01,NNE,12,8.0,21.0,36,0.00,,,0.00,Wunderground v.1.15,2013-03-08 19:00:00,
2013-03-08 14:05:00,53.3,27.0,30.01,NNW,346,8.0,21.0,36,0.00,,,0.00,Wunderground v.1.15,2013-03-08 19:05:00,
2013-03-08 14:10:00,53.4,27.8,30.00,NW,323,8.0,21.0,37,0.00,,,0.00,Wunderground v.1.15,2013-03-08 19:10:00,
2013-03-08 14:20:00,53.6,27.3,30.00,North,360,8.0,8.0,36,0.00,,,0.00,Wunderground v.1.15,2013-03-08 19:20:00,
2013-03-08 14:30:00,54.1,28.4,30.00,NNW,329,7.0,7.0,37,0.00,,,0.00,Wunderground v.1.15,2013-03-08 19:30:00,
2013-03-08 14:35:00,54.4,28.6,30.00,NW,321,7.0,7.0,37,0.00,,,0.00,Wunderground v.1.15,2013-03-08 19:35:00,
2013-03-08 14:40:00,54.5,28.1,30.01,WNW,302,7.0,7.0,36,0.00,,,0.00,Wunderground v.1.15,2013-03-08 19:40:00,
2013-03-08 14:45:00,54.7,28.2,30.00,NNW,348,6.0,7.0,36,0.00,,,0.00,Wunderground v.1.15,2013-03-08 19:45:00,
2013-03-08 14:50:00,55.0,27.8,30.00,NNE,20,5.0,8.0,35,0.00,,,0.00,Wunderground v.1.15,2013-03-08 19:50:00,
2013-03-08 14:55:00,55.0,27.8,30.00,NW,320,7.0,8.0,35,0.00,,,0.00,Wunderground v.1.15,2013-03-08 19:55:00,
2013-03-08 15:00:00,54.9,28.4,30.00,NW,317,7.0,7.0,36,0.00,,,0.00,Wunderground v.1.15,2013-03-08 20:00:00,
2013-03-08 15:05:00,55.0,27.8,30.00,North,349,6.0,8.0,35,0.00,,,0.00,Wunderground v.1.15,2013-03-08 20:05:00,
2013-03-08 15:10:00,55.3,28.1,30.00,NW,307,6.0,6.0,35,0.00,,,0.00,Wunderground v.1.15,2013-03-08 20:10:00,
2013-03-08 15:15:00,55.4,29.5,30.00,North,360,6.0,8.0,37,0.00,,,0.00,Wunderground v.1.15,2013-03-08 20:15:00,
2013-03-08 15:25:00,55.4,28.9,30.00,NW,321,7.0,8.0,36,0.00,,,0.00,Wunderground v.1.15,2013-03-08 20:25:00,
2013-03-08 15:30:00,55.3,28.1,30.00,WNW,302,8.0,8.0,35,0.00,,,0.00,Wunderground v.1.15,2013-03-08 20:30:00,
2013-03-08 15:35:00,55.1,29.3,30.00,NNW,338,7.0,8.0,37,0.00,,,0.00,Wunderground v.1.15,2013-03-08 20:35:00,
2013-03-08 15:40:00,55.1,28.6,30.01,North,360,7.0,7.0,36,0.00,,,0.00,Wunderground v.1.15,2013-03-08 20:40:00,
2013-03-08 15:45:00,55.4,29.5,30.01,WNW,298,6.0,7.0,37,0.00,,,0.00,Wunderground v.1.15,2013-03-08 20:45:00,
2013-03-08 15:50:00,55.3,28.8,30.01,WNW,296,6.0,6.0,36,0.00,,,0.00,Wunderground v.1.15,2013-03-08 20:50:00,
2013-03-08 16:00:00,55.3,28.8,30.01,NNW,345,7.0,9.0,36,0.00,,,0.00,Wunderground v.1.15,2013-03-08 21:00:00,
2013-03-08 16:05:00,54.9,27.7,30.01,NW,326,8.0,18.0,35,0.00,,,0.00,Wunderground v.1.15,2013-03-08 21:05:00,
2013-03-08 16:10:00,54.8,27.6,30.01,North,355,8.0,18.0,35,0.00,,,0.00,Wunderground v.1.15,2013-03-08 21:10:00,
2013-03-08 16:15:00,54.7,28.2,30.00,NNW,344,8.0,18.0,36,0.00,,,0.00,Wunderground v.1.15,2013-03-08 21:15:00,
2013-03-08 16:20:00,54.7,27.6,30.01,North,5,8.0,8.0,35,0.00,,,0.00,Wunderground v.1.15,2013-03-08 21:20:00,
2013-03-08 16:30:00,55.0,28.5,30.01,NNW,340,7.0,18.0,36,0.00,,,0.00,Wunderground v.1.15,2013-03-08 21:30:00,
2013-03-08 16:35:00,55.0,28.5,30.01,NW,323,7.0,18.0,36,0.00,,,0.00,Wunderground v.1.15,2013-03-08 21:35:00,
2013-03-08 16:40:00,55.0,28.5,30.01,NNW,330,8.0,8.0,36,0.00,,,0.00,Wunderground v.1.15,2013-03-08 21:40:00,
2013-03-08 16:45:00,55.0,28.5,30.02,NNW,345,7.0,18.0,36,0.00,,,0.00,Wunderground v.1.15,2013-03-08 21:45:00,
2013-03-08 16:50:00,55.0,28.5,30.02,NW,321,6.0,6.0,36,0.00,,,0.00,Wunderground v.1.15,2013-03-08 21:50:00,
2013-03-08 16:55:00,54.8,28.3,30.02,NNW,329,7.0,7.0,36,0.00,,,0.00,Wunderground v.1.15,2013-03-08 21:55:00,
2013-03-08 17:05:00,54.6,27.5,30.03,NW,316,7.0,18.0,35,0.00,,,0.00,Wunderground v.1.15,2013-03-08 22:05:00,
2013-03-08 17:10:00,54.7,28.2,30.03,NNW,331,5.0,18.0,36,0.00,,,0.00,Wunderground v.1.15,2013-03-08 22:10:00,
2013-03-08 17:15:00,54.6,28.2,30.03,NW,319,6.0,18.0,36,0.00,,,0.00,Wunderground v.1.15,2013-03-08 22:15:00,
2013-03-08 17:20:00,54.4,28.0,30.03,NW,324,7.0,18.0,36,0.00,,,0.00,Wunderground v.1.15,2013-03-08 22:20:00,
2013-03-08 17:30:00,54.1,28.4,30.03,NW,316,6.0,6.0,37,0.00,,,0.00,Wunderground v.1.15,2013-03-08 22:30:00,
2013-03-08 17:40:00,53.8,27.4,30.03,NNW,343,5.0,6.0,36,0.00,,,0.00,Wunderground v.1.15,2013-03-08 22:40:00,
2013-03-08 17:45:00,53.6,27.9,30.03,NNW,347,5.0,6.0,37,0.00,,,0.00,Wunderground v.1.15,2013-03-08 22:45:00,
2013-03-08 17:50:00,53.4,27.8,30.04,NNW,328,6.0,6.0,37,0.00,,,0.00,Wunderground v.1.15,2013-03-08 22:50:00,
2013-03-08 17:55:00,53.2,27.6,30.04,NNW,340,4.0,6.0,37,0.00,,,0.00,Wunderground v.1.15,2013-03-08 22:55:00,
2013-03-08 18:00:00,52.9,28.0,30.04,NNW,347,4.0,4.0,38,0.00,,,0.00,Wunderground v.1.15,2013-03-08 23:00:00,
2013-03-08 18:10:00,52.1,27.9,30.05,NW,316,3.0,3.0,39,0.00,,,0.00,Wunderground v.1.15,2013-03-08 23:10:00,
2013-03-08 18:15:00,51.8,28.2,30.05,NW,323,3.0,3.0,40,0.00,,,0.00,Wunderground v.1.15,2013-03-08 23:15:00,
2013-03-08 18:20:00,51.4,27.9,30.05,NNW,331,3.0,3.0,40,0.00,,,0.00,Wunderground v.1.15,2013-03-08 23:20:00,
2013-03-08 18:30:00,50.8,27.9,30.05,North,5,1.0,2.0,41,0.00,,,0.00,Wunderground v.1.15,2013-03-08 23:30:00,
2013-03-08 18:35:00,50.5,28.2,30.06,North,355,2.0,2.0,42,0.00,,,0.00,Wunderground v.1.15,2013-03-08 23:35:00,
2013-03-08 18:45:00,49.9,28.8,30.06,NNW,340,1.0,1.0,44,0.00,,,0.00,Wunderground v.1.15,2013-03-08 23:45:00,
2013-03-08 18:50:00,49.6,28.0,30.06,NW,313,2.0,2.0,43,0.00,,,0.00,Wunderground v.1.15,2013-03-08 23:50:00,
2013-03-08 18:55:00,49.4,27.8,30.07,NNW,348,2.0,3.0,43,0.00,,,0.00,Wunderground v.1.15,2013-03-08 23:55:00,
2013-03-08 19:00:00,49.1,27.5,30.07,NNW,344,2.0,2.0,43,0.00,,,0.00,Wunderground v.1.15,2013-03-09 00:00:00,
2013-03-08 19:10:00,48.8,27.8,30.07,North,5,2.0,21.0,44,0.00,,,0.00,Wunderground v.1.15,2013-03-09 00:10:00,
2013-03-08 19:15:00,48.8,27.8,30.08,North,5,3.0,21.0,44,0.00,,,0.00,Wunderground v.1.15,2013-03-09 00:15:00,
2013-03-08 19:20:00,48.7,27.2,30.08,NNW,336,2.0,21.0,43,0.00,,,0.00,Wunderground v.1.15,2013-03-09 00:20:00,
2013-03-08 19:25:00,48.7,27.7,30.08,North,351,2.0,21.0,44,0.00,,,0.00,Wunderground v.1.15,2013-03-09 00:25:00,
2013-03-08 19:30:00,48.7,27.7,30.08,NNW,327,3.0,3.0,44,0.00,,,0.00,Wunderground v.1.15,2013-03-09 00:30:00,
2013-03-08 19:35:00,48.6,27.6,30.09,North,11,3.0,21.0,44,0.00,,,0.00,Wunderground v.1.15,2013-03-09 00:35:00,
2013-03-08 19:40:00,48.5,28.1,30.09,NNE,32,3.0,3.0,45,0.00,,,0.00,Wunderground v.1.15,2013-03-09 00:40:00,
2013-03-08 19:50:00,48.0,28.2,30.10,NE,42,3.0,3.0,46,0.00,,,0.00,Wunderground v.1.15,2013-03-09 00:50:00,
2013-03-08 19:55:00,47.8,28.0,30.10,NNE,23,4.0,6.0,46,0.00,,,0.00,Wunderground v.1.15,2013-03-09 00:55:00,
2013-03-08 20:00:00,47.7,27.9,30.10,North,355,5.0,21.0,46,0.00,,,0.00,Wunderground v.1.15,2013-03-09 01:00:00,
2013-03-08 20:05:00,47.5,28.3,30.10,North,360,4.0,21.0,47,0.00,,,0.00,Wunderground v.1.15,2013-03-09 01:05:00,
2013-03-08 20:15:00,47.2,28.0,30.10,NNE,16,6.0,21.0,47,0.00,,,0.00,Wunderground v.1.15,2013-03-09 01:15:00,
2013-03-08 20:25:00,46.9,28.2,30.10,NE,38,5.0,21.0,48,0.00,,,0.00,Wunderground v.1.15,2013-03-09 01:25:00,
2013-03-08 20:30:00,46.7,28.0,30.10,North,11,5.0,5.0,48,0.00,,,0.00,Wunderground v.1.15,2013-03-09 01:30:00,
2013-03-08 20:35:00,46.5,28.3,30.10,NNE,26,4.0,5.0,49,0.00,,,0.00,Wunderground v.1.15,2013-03-09 01:35:00,
2013-03-08 20:40:00,46.4,28.8,30.11,North,360,4.0,4.0,50,0.00,,,0.00,Wunderground v.1.15,2013-03-09 01:40:00,
2013-03-08 20:45:00,46.1,28.5,30.11,North,5,3.0,4.0,50,0.00,,,0.00,Wunderground v.1.15,2013-03-09 01:45:00,
2013-03-08 20:55:00,45.8,28.2,30.11,NE,35,5.0,8.0,50,0.00,,,0.00,Wunderground v.1.15,2013-03-09 01:55:00,
2013-03-08 21:00:00,45.6,28.5,30.11,NNE,19,5.0,5.0,51,0.00,,,0.00,Wunderground v.1.15,2013-03-09 02:00:00,
2013-03-08 21:05:00,45.4,28.3,30.11,NNE,15,4.0,5.0,51,0.00,,,0.00,Wunderground v.1.15,2013-03-09 02:05:00,
2013-03-08 21:10:00,45.3,28.7,30.11,North,5,4.0,4.0,52,0.00,,,0.00,Wunderground v.1.15,2013-03-09 02:10:00,
2013-03-08 21:15:00,45.1,28.5,30.11,ENE,70,3.0,4.0,52,0.00,,,0.00,Wunderground v.1.15,2013-03-09 02:15:00,
2013-03-08 21:20:00,44.9,28.3,30.11,North,5,3.0,3.0,52,0.00,,,0.00,Wunderground v.1.15,2013-03-09 02:20:00,
2013-03-08 21:25:00,44.6,28.5,30.12,North,9,3.0,4.0,53,0.00,,,0.00,Wunderground v.1.15,2013-03-09 02:25:00,
2013-03-08 21:30:00,44.4,28.3,30.11,NE,35,3.0,7.0,53,0.00,,,0.00,Wunderground v.1.15,2013-03-09 02:30:00,
2013-03-08 21:35:00,44.3,28.7,30.12,NNE,17,3.0,8.0,54,0.00,,,0.00,Wunderground v.1.15,2013-03-09 02:35:00,
2013-03-08 21:40:00,44.2,28.6,30.12,NE,34,4.0,4.0,54,0.00,,,0.00,Wunderground v.1.15,2013-03-09 02:40:00,
2013-03-08 21:45:00,44.1,28.5,30.12,NE,41,4.0,4.0,54,0.00,,,0.00,Wunderground v.1.15,2013-03-09 02:45:00,
2013-03-08 21:55:00,43.9,28.3,30.13,North,355,2.0,3.0,54,0.00,,,0.00,Wunderground v.1.15,2013-03-09 02:55:00,
2013-03-08 22:00:00,43.7,28.6,30.13,North,360,3.0,3.0,55,0.00,,,0.00,Wunderground v.1.15,2013-03-09 03:00:00,
2013-03-08 22:05:00,43.6,28.5,30.13,North,9,3.0,4.0,55,0.00,,,0.00,Wunderground v.1.15,2013-03-09 03:05:00,
2013-03-08 22:10:00,43.5,28.4,30.14,North,355,3.0,12.0,55,0.00,,,0.00,Wunderground v.1.15,2013-03-09 03:10:00,
2013-03-08 22:15:00,43.4,28.3,30.14,North,5,3.0,12.0,55,0.00,,,0.00,Wunderground v.1.15,2013-03-09 03:15:00,
2013-03-08 22:20:00,43.3,28.2,30.14,North,355,3.0,12.0,55,0.00,,,0.00,Wunderground v.1.15,2013-03-09 03:20:00,
2013-03-08 22:30:00,43.0,28.4,30.14,North,355,3.0,3.0,56,0.00,,,0.00,Wunderground v.1.15,2013-03-09 03:30:00,
2013-03-08 22:35:00,42.9,28.7,30.14,North,360,2.0,12.0,57,0.00,,,0.00,Wunderground v.1.15,2013-03-09 03:35:00,
2013-03-08 22:40:00,42.6,28.4,30.14,NNW,348,2.0,2.0,57,0.00,,,0.00,Wunderground v.1.15,2013-03-09 03:40:00,
2013-03-08 22:45:00,42.5,28.8,30.14,NNE,12,2.0,3.0,58,0.00,,,0.00,Wunderground v.1.15,2013-03-09 03:45:00,
2013-03-08 22:55:00,42.2,28.5,30.15,NNW,347,2.0,12.0,58,0.00,,,0.00,Wunderground v.1.15,2013-03-09 03:55:00,
2013-03-08 23:05:00,41.9,29.0,30.15,NNW,342,2.0,12.0,60,0.00,,,0.00,Wunderground v.1.15,2013-03-09 04:05:00,
2013-03-08 23:10:00,41.7,28.8,30.15,North,355,2.0,2.0,60,0.00,,,0.00,Wunderground v.1.15,2013-03-09 04:10:00,
2013-03-08 23:15:00,41.6,28.7,30.15,North,9,2.0,12.0,60,0.00,,,0.00,Wunderground v.1.15,2013-03-09 04:15:00,
2013-03-08 23:20:00,41.5,28.6,30.15,North,10,2.0,12.0,60,0.00,,,0.00,Wunderground v.1.15,2013-03-09 04:20:00,
2013-03-08 23:25:00,41.4,28.5,30.15,North,11,2.0,12.0,60,0.00,,,0.00,Wunderground v.1.15,2013-03-09 04:25:00,
2013-03-08 23:30:00,41.4,28.5,30.15,North,349,2.0,2.0,60,0.00,,,0.00,Wunderground v.1.15,2013-03-09 04:30:00,
2013-03-08 23:40:00,41.1,28.7,30.15,NNW,338,1.0,12.0,61,0.00,,,0.00,Wunderground v.1.15,2013-03-09 04:40:00,
2013-03-08 23:45:00,41.0,29.0,30.15,North,360,1.0,12.0,62,0.00,,,0.00,Wunderground v.1.15,2013-03-09 04:45:00,
2013-03-08 23:50:00,40.7,28.7,30.14,North,355,1.0,1.0,62,0.00,,,0.00,Wunderground v.1.15,2013-03-09 04:50:00,
2013-03-08 23:55:00,40.5,28.9,30.15,NNW,344,0.0,12.0,63,0.00,,,0.00,Wunderground v.1.15,2013-03-09 04:55:00,